Location: Claremont
(33.9858°S, 18.4575°E)
Time: 01:57:27
(UTC+00:00)

Cosmos 1605 Rocket - Pass Details

Date: 03 March 2021
Orbit: 944 x 1007 km, 82.9° (Epoch: 21 April)

Event Time Altitude Azimuth Distance (km) Brightness Sun altitude
Rises 19:20:11 0° 183° (S) 3,687 7.4 -24.6°
Reaches altitude 10° 19:22:44 10° 180° (S) 2,743 6.7 -25.0°
Maximum altitude 19:28:59 66° 98° (E) 1,076 3.9 -26.2°
Enters shadow 19:29:28 64° 72° (ENE) 1,093 3.9 -26.3°
